09-12-2022, 00:00:00,    326,    0.0,   -4.6,   0.00,   0.00, 1006.9,   88.4, -999.0
09-12-2022, 00:00:10,    325,    0.0,   -4.6,   0.00,   0.00, 1006.9,   88.4, -999.0
09-12-2022, 00:00:21,    326,    0.0,   -4.7,   0.00,   0.00, 1006.9,   88.3, -999.0
09-12-2022, 00:00:31,    326,    0.0,   -4.6,   0.00,   0.00, 1006.9,   88.4, -999.0
09-12-2022, 00:00:40,    326,    0.0,   -4.6,   0.00,   0.00, 1006.9,   88.6, -999.0
09-12-2022, 00:00:50,    326,    0.0,   -4.6,   0.00,   0.00, 1006.9,   88.6, -999.0
09-12-2022, 00:01:01,    326,    0.0,   -4.6,   0.00,   0.00, 1006.9,   88.6, -999.0
09-12-2022, 00:01:10,    326,    0.0,   -4.6,   0.00,   0.00, 1006.9,   88.7, -999.0
09-12-2022, 00:01:20,    326,    0.0,   -4.6,   0.00,   0.00, 1006.9,   89.0, -999.0
09-12-2022, 00:01:31,    326,    0.0,   -4.7,   0.00,   0.00, 1006.9,   89.2, -999.0
09-12-2022, 00:01:40,    326,    0.0,   -4.7,   0.00,   0.00, 1006.9,   89.3, -999.0
09-12-2022, 00:01:50,    326,    0.0,   -4.6,   0.00,   0.00, 1006.9,   89.3, -999.0
09-12-2022, 00:02:00,    326,    0.0,   -4.7,   0.00,   0.00, 1006.9,   89.3, -999.0
09-12-2022, 00:02:10,    326,    0.0,   -4.7,   0.00,   0.00, 1006.9,   89.2, -999.0
09-12-2022, 00:02:20,    326,    0.0,   -4.6,   0.00,   0.00, 1006.9,   89.5, -999.0
09-12-2022, 00:02:30,    326,    0.0,   -4.6,   0.00,   0.00, 1006.9,   90.1, -999.0
09-12-2022, 00:02:40,    327,    0.0,   -4.6,   0.00,   0.00, 1006.8,   90.4, -999.0
09-12-2022, 00:02:50,    326,    0.0,   -4.7,   0.00,   0.00, 1006.9,   90.7, -999.0
09-12-2022, 00:03:00,    326,    0.0,   -4.5,   0.00,   0.00, 1006.9,   91.0, -999.0
09-12-2022, 00:03:10,    326,    0.0,   -4.8,   0.00,   0.00, 1006.9,   91.3, -999.0
09-12-2022, 00:03:20,    326,    0.0,   -4.6,   0.00,   0.00, 1006.9,   91.7, -999.0
09-12-2022, 00:03:30,    326,    0.0,   -4.6,   0.00,   0.00, 1006.9,   92.7, -999.0
09-12-2022, 00:03:40,    326,    0.0,   -4.5,   0.00,   0.00, 1006.9,   93.5, -999.0
09-12-2022, 00:03:50,    326,    0.0,   -4.5,   0.00,   0.00, 1006.9,   93.9, -999.0
09-12-2022, 00:04:00,    326,    0.0,   -4.7,   0.00,   0.00, 1006.9,   94.2, -999.0
09-12-2022, 00:04:10,    326,    0.0,   -4.5,   0.00,   0.00, 1006.9,   94.1, -999.0
09-12-2022, 00:04:20,    326,    0.0,   -4.5,   0.00,   0.00, 1006.9,   94.3, -999.0
09-12-2022, 00:04:30,    326,    0.0,   -4.5,   0.00,   0.00, 1006.9,   94.0, -999.0
09-12-2022, 00:04:40,    326,    0.0,   -4.5,   0.00,   0.00, 1006.9,   93.4, -999.0
09-12-2022, 00:04:50,    326,    0.0,   -4.5,   0.00,   0.00, 1006.9,   93.2, -999.0
09-12-2022, 00:05:00,    326,    0.0,   -4.5,   0.00,   0.00, 1006.9,   92.9, -999.0
09-12-2022, 00:05:10,    326,    0.0,   -4.4,   0.00,   0.00, 1006.9,   92.3, -999.0
09-12-2022, 00:05:20,    326,    0.0,   -4.4,   0.00,   0.00, 1006.9,   91.7, -999.0
09-12-2022, 00:05:30,    326,    0.0,   -4.4,   0.00,   0.00, 1006.9,   91.2, -999.0
09-12-2022, 00:05:40,    326,    0.0,   -4.5,   0.00,   0.00, 1006.9,   90.3, -999.0
09-12-2022, 00:05:50,    326,    0.0,   -4.5,   0.00,   0.00, 1006.9,   89.6, -999.0
09-12-2022, 00:06:00,    326,    0.0,   -4.5,   0.00,   0.00, 1006.9,   89.2, -999.0
09-12-2022, 00:06:10,    326,    0.0,   -4.5,   0.00,   0.00, 1006.9,   88.9, -999.0
09-12-2022, 00:06:20,    326,    0.0,   -4.5,   0.00,   0.00, 1006.9,   88.4, -999.0
09-12-2022, 00:06:30,    326,    0.0,   -4.5,   0.00,   0.00, 1006.9,   88.0, -999.0
09-12-2022, 00:06:40,    326,    0.0,   -4.5,   0.00,   0.00, 1006.9,   87.6, -999.0
09-12-2022, 00:06:50,    326,    0.0,   -4.5,   0.00,   0.00, 1006.9,   87.4, -999.0
09-12-2022, 00:07:00,    328,    0.0,   -4.6,   0.00,   0.00, 1006.9,   87.1, -999.0
09-12-2022, 00:07:09,    326,    0.0,   -4.5,   0.00,   0.00, 1006.9,   87.0, -999.0
09-12-2022, 00:07:20,    326,    0.0,   -4.5,   0.00,   0.00, 1006.9,   86.9, -999.0
09-12-2022, 00:07:30,    326,    0.0,   -4.5,   0.00,   0.00, 1006.9,   87.0, -999.0
09-12-2022, 00:07:40,    326,    0.0,   -4.5,   0.00,   0.00, 1006.9,   87.4, -999.0
09-12-2022, 00:07:49,    326,    0.0,   -4.4,   0.00,   0.00, 1006.9,   87.8, -999.0
09-12-2022, 00:08:00,    326,    0.0,   -4.4,   0.00,   0.00, 1006.9,   88.3, -999.0
09-12-2022, 00:08:10,    326,    0.0,   -4.5,   0.00,   0.00, 1006.9,   88.4, -999.0
09-12-2022, 00:08:19,    326,    0.0,   -4.4,   0.00,   0.00, 1006.9,   88.4, -999.0
09-12-2022, 00:08:29,    327,    0.0,   -4.4,   0.00,   0.00, 1006.9,   88.4, -999.0
09-12-2022, 00:08:40,    326,    0.0,   -4.5,   0.00,   0.00, 1006.9,   88.2, -999.0
09-12-2022, 00:08:50,    326,    0.0,   -4.5,   0.00,   0.00, 1006.9,   87.7, -999.0
09-12-2022, 00:08:59,    326,    0.0,   -4.5,   0.00,   0.00, 1006.8,   87.3, -999.0
09-12-2022, 00:09:09,    326,    0.0,   -4.5,   0.00,   0.00, 1006.9,   87.0, -999.0
09-12-2022, 00:09:20,    326,    0.0,   -4.4,   0.00,   0.00, 1006.9,   86.9, -999.0
09-12-2022, 00:09:29,    326,    0.0,   -4.5,   0.00,   0.00, 1006.9,   86.8, -999.0
09-12-2022, 00:09:39,    326,    0.0,   -4.4,   0.00,   0.00, 1006.9,   86.9, -999.0
09-12-2022, 00:09:49,    326,    0.0,   -4.5,   0.00,   0.00, 1006.9,   86.9, -999.0
09-12-2022, 00:09:59,    326,    0.0,   -4.5,   0.00,   0.00, 1006.9,   86.9, -999.0
09-12-2022, 00:10:09,    326,    0.0,   -4.4,   0.00,   0.00, 1006.9,   87.0, -999.0
09-12-2022, 00:10:19,    326,    0.0,   -4.4,   0.00,   0.00, 1006.9,   86.9, -999.0
09-12-2022, 00:10:29,    326,    0.0,   -4.5,   0.00,   0.00, 1006.9,   86.8, -999.0
09-12-2022, 00:10:39,    326,    0.0,   -4.5,   0.00,   0.00, 1006.9,   86.7, -999.0
09-12-2022, 00:10:49,    326,    0.0,   -4.5,   0.00,   0.00, 1006.8,   86.7, -999.0
09-12-2022, 00:10:59,    326,    0.0,   -4.4,   0.00,   0.00, 1006.8,   86.8, -999.0
09-12-2022, 00:11:09,    326,    0.0,   -4.4,   0.00,   0.00, 1006.8,   86.9, -999.0
09-12-2022, 00:11:19,    326,    0.0,   -4.5,   0.00,   0.00, 1006.8,   86.9, -999.0
09-12-2022, 00:11:29,    326,    0.0,   -4.5,   0.00,   0.00, 1006.8,   86.9, -999.0
09-12-2022, 00:11:39,    326,    0.0,   -4.4,   0.00,   0.00, 1006.8,   87.3, -999.0
09-12-2022, 00:11:49,    326,    0.0,   -4.4,   0.00,   0.00, 1006.8,   87.6, -999.0
09-12-2022, 00:11:59,    326,    0.0,   -4.4,   0.00,   0.00, 1006.8,   87.7, -999.0
09-12-2022, 00:12:09,    326,    0.0,   -4.4,   0.00,   0.00, 1006.8,   87.4, -999.0
09-12-2022, 00:12:19,    326,    0.0,   -4.4,   0.00,   0.00, 1006.8,   87.2, -999.0
09-12-2022, 00:12:29,    326,    0.0,   -4.4,   0.00,   0.00, 1006.8,   87.2, -999.0
09-12-2022, 00:12:39,    326,    0.0,   -4.4,   0.00,   0.00, 1006.8,   87.1, -999.0
09-12-2022, 00:12:49,    326,    0.0,   -4.4,   0.00,   0.00, 1006.8,   87.2, -999.0
09-12-2022, 00:12:59,    326,    0.0,   -4.4,   0.00,   0.00, 1006.8,   87.2, -999.0
09-12-2022, 00:13:09,    326,    0.0,   -4.5,   0.00,   0.00, 1006.8,   87.1, -999.0
09-12-2022, 00:13:19,    326,    0.0,   -4.4,   0.00,   0.00, 1006.8,   86.8, -999.0
09-12-2022, 00:13:29,    326,    0.0,   -4.4,   0.00,   0.00, 1006.8,   86.6, -999.0
09-12-2022, 00:13:39,    326,    0.0,   -4.4,   0.00,   0.00, 1006.8,   86.4, -999.0
09-12-2022, 00:13:49,    329,    0.0,   -4.4,   0.00,   0.00, 1006.8,   86.2, -999.0
09-12-2022, 00:13:59,    326,    0.0,   -4.4,   0.00,   0.00, 1006.8,   86.1, -999.0
09-12-2022, 00:14:09,    326,    0.0,   -4.5,   0.00,   0.00, 1006.8,   86.0, -999.0
09-12-2022, 00:14:19,    326,    0.0,   -4.4,   0.00,   0.00, 1006.8,   85.9, -999.0
09-12-2022, 00:14:29,    326,    0.0,   -4.4,   0.00,   0.00, 1006.8,   85.9, -999.0
09-12-2022, 00:14:39,    326,    0.0,   -4.4,   0.00,   0.00, 1006.8,   85.7, -999.0
09-12-2022, 00:14:49,    326,    0.0,   -4.4,   0.00,   0.00, 1006.8,   85.7, -999.0
09-12-2022, 00:14:58,    326,    0.0,   -4.4,   0.00,   0.00, 1006.8,   85.5, -999.0
09-12-2022, 00:15:09,    326,    0.0,   -4.5,   0.00,   0.00, 1006.8,   85.4, -999.0
09-12-2022, 00:15:19,    326,    0.0,   -4.5,   0.00,   0.00, 1006.8,   85.4, -999.0
09-12-2022, 00:15:28,    326,    0.0,   -4.5,   0.00,   0.00, 1006.8,   85.3, -999.0
09-12-2022, 00:15:39,    326,    0.0,   -4.4,   0.00,   0.00, 1006.9,   85.4, -999.0
09-12-2022, 00:15:49,    326,    0.0,   -4.4,   0.00,   0.00, 1006.8,   85.4, -999.0
09-12-2022, 00:15:59,    326,    0.0,   -4.4,   0.00,   0.00, 1006.9,   85.5, -999.0
09-12-2022, 00:16:08,    326,    0.0,   -4.4,   0.00,   0.00, 1006.8,   85.5, -999.0
09-12-2022, 00:16:19,    326,    0.0,   -4.3,   0.00,   0.00, 1006.8,   85.5, -999.0
09-12-2022, 00:16:29,    327,    0.0,   -4.4,   0.00,   0.00, 1006.8,   85.4, -999.0
09-12-2022, 00:16:38,    326,    0.0,   -4.4,   0.00,   0.00, 1006.9,   85.3, -999.0
09-12-2022, 00:16:48,    326,    0.0,   -4.4,   0.00,   0.00, 1006.8,   85.3, -999.0
09-12-2022, 00:16:59,    326,    0.0,   -4.4,   0.00,   0.00, 1006.8,   85.2, -999.0
09-12-2022, 00:17:08,    326,    0.0,   -4.4,   0.00,   0.00, 1006.9,   85.2, -999.0
09-12-2022, 00:17:18,    326,    0.0,   -4.4,   0.00,   0.00, 1006.9,   85.1, -999.0
09-12-2022, 00:17:28,    326,    0.0,   -4.4,   0.00,   0.00, 1006.8,   84.8, -999.0
09-12-2022, 00:17:39,    326,    0.0,   -4.4,   0.00,   0.00, 1006.9,   84.8, -999.0
09-12-2022, 00:17:48,    326,    0.0,   -4.4,   0.00,   0.00, 1006.9,   84.7, -999.0
09-12-2022, 00:17:58,    326,    0.0,   -4.4,   0.00,   0.00, 1006.9,   84.6, -999.0
09-12-2022, 00:18:08,    326,    0.0,   -4.4,   0.00,   0.00, 1006.8,   84.5, -999.0
09-12-2022, 00:18:18,    326,    0.0,   -4.5,   0.00,   0.00, 1006.9,   84.4, -999.0
09-12-2022, 00:18:28,    326,    0.0,   -4.4,   0.00,   0.00, 1006.9,   84.4, -999.0
09-12-2022, 00:18:38,    326,    0.0,   -4.5,   0.00,   0.00, 1006.9,   84.4, -999.0
09-12-2022, 00:18:48,    326,    0.0,   -4.5,   0.00,   0.00, 1006.9,   84.4, -999.0
09-12-2022, 00:18:58,    326,    0.0,   -4.4,   0.00,   0.00, 1006.9,   84.3, -999.0
09-12-2022, 00:19:08,    326,    0.0,   -4.4,   0.00,   0.00, 1006.8,   84.3, -999.0
09-12-2022, 00:19:18,    326,    0.0,   -4.4,   0.00,   0.00, 1006.9,   84.4, -999.0
09-12-2022, 00:19:28,    326,    0.0,   -4.4,   0.00,   0.00, 1006.9,   84.4, -999.0
09-12-2022, 00:19:38,    326,    0.0,   -4.4,   0.00,   0.00, 1006.9,   84.3, -999.0
09-12-2022, 00:19:48,    326,    0.0,   -4.4,   0.00,   0.00, 1006.8,   84.3, -999.0
09-12-2022, 00:19:58,    326,    0.0,   -4.3,   0.00,   0.00, 1006.8,   84.4, -999.0
09-12-2022, 00:20:08,    326,    0.0,   -4.4,   0.00,   0.00, 1006.8,   84.3, -999.0
09-12-2022, 00:20:18,    326,    0.0,   -4.4,   0.00,   0.00, 1006.8,   84.2, -999.0
09-12-2022, 00:20:28,    326,    0.0,   -4.5,   0.00,   0.00, 1006.9,   84.3, -999.0
09-12-2022, 00:20:38,    326,    0.0,   -4.5,   0.00,   0.00, 1006.8,   84.2, -999.0
09-12-2022, 00:20:48,    326,    0.0,   -4.4,   0.00,   0.00, 1006.9,   84.1, -999.0
09-12-2022, 00:20:58,    326,    0.0,   -4.4,   0.00,   0.00, 1006.8,   84.0, -999.0
09-12-2022, 00:21:09,    326,    0.0,   -4.4,   0.00,   0.00, 1006.9,   84.1, -999.0
09-12-2022, 00:21:18,    326,    0.0,   -4.4,   0.00,   0.00, 1006.8,   84.1, -999.0
09-12-2022, 00:21:28,    327,    0.0,   -4.3,   0.00,   0.00, 1006.9,   84.1, -999.0
09-12-2022, 00:21:38,    326,    0.0,   -4.3,   0.00,   0.00, 1006.9,   84.1, -999.0
09-12-2022, 00:21:48,    326,    0.0,   -4.5,   0.00,   0.00, 1006.8,   84.2, -999.0
09-12-2022, 00:21:58,    326,    0.0,   -4.4,   0.00,   0.00, 1006.8,   84.1, -999.0
09-12-2022, 00:22:08,    326,    0.0,   -4.4,   0.00,   0.00, 1006.9,   84.2, -999.0
09-12-2022, 00:22:18,    326,    0.0,   -4.4,   0.00,   0.00, 1006.8,   84.0, -999.0
09-12-2022, 00:22:28,    326,    0.0,   -4.3,   0.00,   0.00, 1006.8,   84.0, -999.0
09-12-2022, 00:22:37,    326,    0.0,   -4.4,   0.00,   0.00, 1006.8,   83.9, -999.0
09-12-2022, 00:22:48,    326,    0.0,   -4.4,   0.00,   0.00, 1006.8,   83.9, -999.0
09-12-2022, 00:22:58,    326,    0.0,   -4.4,   0.00,   0.00, 1006.8,   83.9, -999.0
09-12-2022, 00:23:08,    326,    0.0,   -4.4,   0.00,   0.00, 1006.8,   83.9, -999.0
09-12-2022, 00:23:17,    326,    0.0,   -4.4,   0.00,   0.00, 1006.8,   83.8, -999.0
09-12-2022, 00:23:28,    326,    0.0,   -4.4,   0.00,   0.00, 1006.8,   83.8, -999.0
09-12-2022, 00:23:38,    326,    0.0,   -4.3,   0.00,   0.00, 1006.8,   83.8, -999.0
09-12-2022, 00:23:47,    326,    0.0,   -4.4,   0.00,   0.00, 1006.8,   83.8, -999.0
09-12-2022, 00:23:57,    326,    0.0,   -4.5,   0.00,   0.00, 1006.8,   83.7, -999.0
09-12-2022, 00:24:08,    326,    0.0,   -4.5,   0.00,   0.00, 1006.8,   83.7, -999.0
09-12-2022, 00:24:18,    326,    0.0,   -4.4,   0.00,   0.00, 1006.8,   83.6, -999.0
09-12-2022, 00:24:27,    326,    0.0,   -4.4,   0.00,   0.00, 1006.8,   83.7, -999.0
09-12-2022, 00:24:37,    327,    0.0,   -4.5,   0.00,   0.00, 1006.8,   83.6, -999.0
09-12-2022, 00:24:48,    326,    0.0,   -4.4,   0.00,   0.00, 1006.8,   83.6, -999.0
09-12-2022, 00:24:57,    326,    0.0,   -4.3,   0.00,   0.00, 1006.8,   83.7, -999.0
09-12-2022, 00:25:07,    326,    0.0,   -4.4,   0.00,   0.00, 1006.8,   83.7, -999.0
09-12-2022, 00:25:18,    326,    0.0,   -4.4,   0.00,   0.00, 1006.8,   83.7, -999.0
09-12-2022, 00:25:27,    326,    0.0,   -4.3,   0.00,   0.00, 1006.8,   83.8, -999.0
09-12-2022, 00:25:37,    326,    0.0,   -4.4,   0.00,   0.00, 1006.7,   83.8, -999.0
09-12-2022, 00:25:47,    326,    0.0,   -4.4,   0.00,   0.00, 1006.7,   83.8, -999.0
09-12-2022, 00:25:57,    326,    0.0,   -4.4,   0.00,   0.00, 1006.7,   83.9, -999.0
09-12-2022, 00:26:07,    326,    0.0,   -4.4,   0.00,   0.00, 1006.7,   83.8, -999.0
09-12-2022, 00:26:17,    326,    0.0,   -4.4,   0.00,   0.00, 1006.7,   83.8, -999.0
09-12-2022, 00:26:27,    326,    0.0,   -4.4,   0.00,   0.00, 1006.7,   83.8, -999.0
09-12-2022, 00:26:37,    326,    0.0,   -4.3,   0.00,   0.00, 1006.7,   83.8, -999.0
09-12-2022, 00:26:47,    326,    0.0,   -4.3,   0.00,   0.00, 1006.7,   83.7, -999.0
09-12-2022, 00:26:57,    326,    0.0,   -4.4,   0.00,   0.00, 1006.7,   83.7, -999.0
09-12-2022, 00:27:07,    326,    0.0,   -4.4,   0.00,   0.00, 1006.7,   83.7, -999.0
09-12-2022, 00:27:17,    326,    0.0,   -4.3,   0.00,   0.00, 1006.7,   83.6, -999.0
09-12-2022, 00:27:27,    326,    0.0,   -4.3,   0.00,   0.00, 1006.7,   83.7, -999.0
09-12-2022, 00:27:37,    326,    0.0,   -4.4,   0.00,   0.00, 1006.7,   83.7, -999.0
09-12-2022, 00:27:47,    326,    0.0,   -4.4,   0.00,   0.00, 1006.7,   83.7, -999.0
09-12-2022, 00:27:57,    326,    0.0,   -4.4,   0.00,   0.00, 1006.7,   83.7, -999.0
09-12-2022, 00:28:07,    326,    0.0,   -4.4,   0.00,   0.00, 1006.7,   83.7, -999.0
09-12-2022, 00:28:17,    326,    0.0,   -4.3,   0.00,   0.00, 1006.7,   83.7, -999.0
09-12-2022, 00:28:27,    326,    0.0,   -4.3,   0.00,   0.00, 1006.7,   83.7, -999.0
09-12-2022, 00:28:37,    326,    0.0,   -4.4,   0.00,   0.00, 1006.7,   83.8, -999.0
09-12-2022, 00:28:47,    326,    0.0,   -4.3,   0.00,   0.00, 1006.7,   83.8, -999.0
09-12-2022, 00:28:57,    326,    0.0,   -4.3,   0.00,   0.00, 1006.7,   83.9, -999.0
09-12-2022, 00:29:07,    326,    0.0,   -4.3,   0.00,   0.00, 1006.7,   83.7, -999.0
09-12-2022, 00:29:17,    327,    0.0,   -4.3,   0.00,   0.00, 1006.7,   83.8, -999.0
09-12-2022, 00:29:27,    326,    0.0,   -4.3,   0.00,   0.00, 1006.7,   83.7, -999.0
09-12-2022, 00:29:37,    326,    0.0,   -4.3,   0.00,   0.00, 1006.7,   83.8, -999.0
09-12-2022, 00:29:47,    326,    0.0,   -4.3,   0.00,   0.00, 1006.7,   83.8, -999.0
09-12-2022, 00:29:57,    326,    0.0,   -4.3,   0.00,   0.00, 1006.7,   83.9, -999.0
09-12-2022, 00:30:07,    326,    0.0,   -4.3,   0.00,   0.00, 1006.7,   83.8, -999.0
09-12-2022, 00:30:17,    326,    0.0,   -4.3,   0.00,   0.00, 1006.7,   83.8, -999.0
09-12-2022, 00:30:27,    326,    0.0,   -4.3,   0.00,   0.00, 1006.8,   83.7, -999.0
09-12-2022, 00:30:37,    326,    0.0,   -4.3,   0.00,   0.00, 1006.7,   83.7, -999.0
09-12-2022, 00:30:47,    327,    0.0,   -4.3,   0.00,   0.00, 1006.7,   83.8, -999.0
09-12-2022, 00:30:56,    326,    0.0,   -4.3,   0.00,   0.00, 1006.8,   83.6, -999.0
09-12-2022, 00:31:07,    326,    0.0,   -4.3,   0.00,   0.00, 1006.7,   83.6, -999.0
09-12-2022, 00:31:17,    326,    0.0,   -4.2,   0.00,   0.00, 1006.7,   83.6, -999.0
09-12-2022, 00:31:27,    327,    0.0,   -4.3,   0.00,   0.00, 1006.7,   83.5, -999.0
09-12-2022, 00:31:36,    326,    0.0,   -4.4,   0.00,   0.00, 1006.8,   83.6, -999.0
09-12-2022, 00:31:47,    326,    0.0,   -4.3,   0.00,   0.00, 1006.7,   83.5, -999.0
09-12-2022, 00:31:57,    326,    0.0,   -4.2,   0.00,   0.00, 1006.7,   83.5, -999.0
09-12-2022, 00:32:06,    326,    0.0,   -4.4,   0.00,   0.00, 1006.7,   83.5, -999.0
09-12-2022, 00:32:16,    326,    0.0,   -4.3,   0.00,   0.00, 1006.7,   83.5, -999.0
09-12-2022, 00:32:27,    326,    0.0,   -4.2,   0.00,   0.00, 1006.7,   83.5, -999.0
09-12-2022, 00:32:36,    326,    0.0,   -4.2,   0.00,   0.00, 1006.7,   83.5, -999.0
09-12-2022, 00:32:46,    327,    0.0,   -4.3,   0.00,   0.00, 1006.7,   83.5, -999.0
09-12-2022, 00:32:56,    326,    0.0,   -4.2,   0.00,   0.00, 1006.7,   83.5, -999.0
09-12-2022, 00:33:07,    326,    0.0,   -4.2,   0.00,   0.00, 1006.7,   83.6, -999.0
09-12-2022, 00:33:16,    327,    0.0,   -4.2,   0.00,   0.00, 1006.7,   83.5, -999.0
09-12-2022, 00:33:26,    326,    0.0,   -4.2,   0.00,   0.00, 1006.7,   83.5, -999.0
09-12-2022, 00:33:36,    326,    0.0,   -4.3,   0.00,   0.00, 1006.7,   83.5, -999.0
09-12-2022, 00:33:46,    326,    0.0,   -4.3,   0.00,   0.00, 1006.7,   83.5, -999.0
09-12-2022, 00:33:56,    326,    0.0,   -4.2,   0.00,   0.00, 1006.7,   83.5, -999.0
09-12-2022, 00:34:06,    326,    0.0,   -4.2,   0.00,   0.00, 1006.7,   83.4, -999.0
09-12-2022, 00:34:16,    326,    0.0,   -4.2,   0.00,   0.00, 1006.7,   83.5, -999.0
09-12-2022, 00:34:26,    326,    0.0,   -4.2,   0.00,   0.00, 1006.7,   83.4, -999.0
09-12-2022, 00:34:36,    326,    0.0,   -4.3,   0.00,   0.00, 1006.7,   83.4, -999.0
09-12-2022, 00:34:46,    326,    0.0,   -4.2,   0.00,   0.00, 1006.7,   83.5, -999.0
09-12-2022, 00:34:56,    326,    0.0,   -4.2,   0.00,   0.00, 1006.7,   83.4, -999.0
09-12-2022, 00:35:06,    326,    0.0,   -4.3,   0.00,   0.00, 1006.7,   83.4, -999.0
09-12-2022, 00:35:16,    326,    0.0,   -4.4,   0.00,   0.00, 1006.7,   83.3, -999.0
09-12-2022, 00:35:26,    326,    0.0,   -4.2,   0.00,   0.00, 1006.7,   83.3, -999.0
09-12-2022, 00:35:36,    326,    0.0,   -4.2,   0.00,   0.00, 1006.7,   83.3, -999.0
09-12-2022, 00:35:46,    326,    0.0,   -4.2,   0.00,   0.00, 1006.7,   83.3, -999.0
09-12-2022, 00:35:56,    326,    0.0,   -4.3,   0.00,   0.00, 1006.7,   83.2, -999.0
09-12-2022, 00:36:06,    326,    0.0,   -4.2,   0.00,   0.00, 1006.7,   83.2, -999.0
09-12-2022, 00:36:16,    326,    0.0,   -4.3,   0.00,   0.00, 1006.7,   83.1, -999.0
09-12-2022, 00:36:26,    326,    0.0,   -4.2,   0.00,   0.00, 1006.7,   83.1, -999.0
09-12-2022, 00:36:36,    326,    0.0,   -4.2,   0.00,   0.00, 1006.7,   83.0, -999.0
09-12-2022, 00:36:46,    326,    0.0,   -4.2,   0.00,   0.00, 1006.7,   83.1, -999.0
09-12-2022, 00:36:56,    326,    0.0,   -4.2,   0.00,   0.00, 1006.7,   83.0, -999.0
09-12-2022, 00:37:06,    326,    0.0,   -4.2,   0.00,   0.00, 1006.7,   83.0, -999.0
09-12-2022, 00:37:16,    326,    0.0,   -4.2,   0.00,   0.00, 1006.7,   83.1, -999.0
09-12-2022, 00:37:26,    326,    0.0,   -4.2,   0.00,   0.00, 1006.7,   83.0, -999.0
09-12-2022, 00:37:36,    326,    0.0,   -4.0,   0.00,   0.00, 1006.7,   83.0, -999.0
09-12-2022, 00:37:46,    326,    0.0,   -4.2,   0.00,   0.00, 1006.7,   83.0, -999.0
09-12-2022, 00:37:56,    326,    0.0,   -4.1,   0.00,   0.00, 1006.7,   82.9, -999.0
09-12-2022, 00:38:06,    326,    0.0,   -4.1,   0.00,   0.00, 1006.7,   83.0, -999.0
09-12-2022, 00:38:16,    326,    0.0,   -4.1,   0.00,   0.00, 1006.7,   83.0, -999.0
09-12-2022, 00:38:26,    326,    0.0,   -4.1,   0.00,   0.00, 1006.7,   82.9, -999.0
09-12-2022, 00:38:36,    326,    0.0,   -4.1,   0.00,   0.00, 1006.7,   83.0, -999.0
09-12-2022, 00:38:45,    326,    0.0,   -4.3,   0.00,   0.00, 1006.7,   82.8, -999.0
09-12-2022, 00:38:56,    326,    0.0,   -4.2,   0.00,   0.00, 1006.7,   82.9, -999.0
09-12-2022, 00:39:06,    326,    0.0,   -4.1,   0.00,   0.00, 1006.6,   82.8, -999.0
09-12-2022, 00:39:15,    326,    0.0,   -4.3,   0.00,   0.00, 1006.7,   82.8, -999.0
09-12-2022, 00:39:26,    326,    0.0,   -4.2,   0.00,   0.00, 1006.7,   82.8, -999.0
09-12-2022, 00:39:36,    326,    0.0,   -4.1,   0.00,   0.00, 1006.6,   82.7, -999.0
09-12-2022, 00:39:46,    326,    0.0,   -4.2,   0.00,   0.00, 1006.6,   82.7, -999.0
09-12-2022, 00:39:55,    326,    0.0,   -4.1,   0.00,   0.00, 1006.7,   82.8, -999.0
09-12-2022, 00:40:06,    326,    0.0,   -4.2,   0.00,   0.00, 1006.7,   82.8, -999.0
09-12-2022, 00:40:16,    326,    0.0,   -4.2,   0.00,   0.00, 1006.7,   82.7, -999.0
09-12-2022, 00:40:25,    326,    0.0,   -4.2,   0.00,   0.00, 1006.7,   82.7, -999.0
09-12-2022, 00:40:35,    326,    0.0,   -4.1,   0.00,   0.00, 1006.7,   82.8, -999.0
09-12-2022, 00:40:46,    326,    0.0,   -4.1,   0.00,   0.00, 1006.6,   82.8, -999.0
09-12-2022, 00:40:55,    326,    0.0,   -4.1,   0.00,   0.00, 1006.7,   82.8, -999.0
09-12-2022, 00:41:05,    326,    0.0,   -4.1,   0.00,   0.00, 1006.7,   82.7, -999.0
09-12-2022, 00:41:15,    326,    0.0,   -4.1,   0.00,   0.00, 1006.6,   82.7, -999.0
09-12-2022, 00:41:26,    326,    0.0,   -4.1,   0.00,   0.00, 1006.6,   82.6, -999.0
09-12-2022, 00:41:35,    326,    0.0,   -4.1,   0.00,   0.00, 1006.6,   82.7, -999.0
09-12-2022, 00:41:45,    325,    0.0,   -4.2,   0.00,   0.00, 1006.6,   82.7, -999.0
09-12-2022, 00:41:55,    326,    0.0,   -4.2,   0.00,   0.00, 1006.6,   82.7, -999.0
09-12-2022, 00:42:05,    326,    0.0,   -4.1,   0.00,   0.00, 1006.6,   82.6, -999.0
09-12-2022, 00:42:15,    326,    0.0,   -4.3,   0.00,   0.00, 1006.6,   82.5, -999.0
09-12-2022, 00:42:25,    326,    0.0,   -4.3,   0.00,   0.00, 1006.7,   82.5, -999.0
09-12-2022, 00:42:35,    326,    0.0,   -4.3,   0.00,   0.00, 1006.7,   82.4, -999.0
09-12-2022, 00:42:45,    326,    0.0,   -4.3,   0.00,   0.00, 1006.7,   82.4, -999.0
09-12-2022, 00:42:55,    326,    0.0,   -4.3,   0.00,   0.00, 1006.7,   82.4, -999.0
09-12-2022, 00:43:05,    326,    0.0,   -4.3,   0.00,   0.00, 1006.7,   82.5, -999.0
09-12-2022, 00:43:15,    326,    0.0,   -4.4,   0.00,   0.00, 1006.6,   82.6, -999.0
09-12-2022, 00:43:25,    326,    0.0,   -4.5,   0.00,   0.00, 1006.6,   82.6, -999.0
09-12-2022, 00:43:35,    326,    0.0,   -4.3,   0.00,   0.00, 1006.6,   82.7, -999.0
09-12-2022, 00:43:45,    326,    0.0,   -4.3,   0.00,   0.00, 1006.6,   82.7, -999.0
09-12-2022, 00:43:55,    326,    0.0,   -4.4,   0.00,   0.00, 1006.7,   82.7, -999.0
09-12-2022, 00:44:05,    326,    0.0,   -4.3,   0.00,   0.00, 1006.6,   82.8, -999.0
09-12-2022, 00:44:15,    326,    0.0,   -4.4,   0.00,   0.00, 1006.6,   82.8, -999.0
09-12-2022, 00:44:25,    326,    0.0,   -4.3,   0.00,   0.00, 1006.7,   82.9, -999.0
09-12-2022, 00:44:35,    326,    0.0,   -4.3,   0.00,   0.00, 1006.6,   82.9, -999.0
09-12-2022, 00:44:45,    326,    0.0,   -4.3,   0.00,   0.00, 1006.6,   82.9, -999.0
09-12-2022, 00:44:55,    326,    0.0,   -4.3,   0.00,   0.00, 1006.6,   82.9, -999.0
09-12-2022, 00:45:05,    326,    0.0,   -4.3,   0.00,   0.00, 1006.6,   82.9, -999.0
09-12-2022, 00:45:15,    326,    0.0,   -4.3,   0.00,   0.00, 1006.6,   82.9, -999.0
09-12-2022, 00:45:25,    326,    0.0,   -4.3,   0.00,   0.00, 1006.6,   82.9, -999.0
09-12-2022, 00:45:35,    326,    0.0,   -4.4,   0.00,   0.00, 1006.6,   82.9, -999.0
09-12-2022, 00:45:45,    327,    0.0,   -4.4,   0.00,   0.00, 1006.6,   82.9, -999.0
09-12-2022, 00:45:55,    326,    0.0,   -4.4,   0.00,   0.00, 1006.6,   82.8, -999.0
09-12-2022, 00:46:05,    326,    0.0,   -4.4,   0.00,   0.00, 1006.6,   82.8, -999.0
09-12-2022, 00:46:15,    326,    0.0,   -4.4,   0.00,   0.00, 1006.6,   82.9, -999.0
09-12-2022, 00:46:24,    326,    0.0,   -4.3,   0.00,   0.00, 1006.6,   83.0, -999.0
09-12-2022, 00:46:35,    326,    0.0,   -4.3,   0.00,   0.00, 1006.6,   83.0, -999.0
09-12-2022, 00:46:45,    326,    0.0,   -4.5,   0.00,   0.00, 1006.6,   82.9, -999.0